Weather in Sumy

Russia / Novosibirsk Oblast     54°48′39″N   80°26′18″E
temp.,
°C
wind,
m/s
gust,
m/s
humid.,
%
clouds,
%
prec.,
mm/h
press.,
hPa
HPBL,
m
28 february, sun
sun2801:00−30ssw349828 0.0 103846
04:00−30s339755 0.0 103626
07:00−29sse349761 0.0 103633
10:00−27se489559 0.0 1034149
13:00−22se489074 0.0 1031267
16:00−18se5890100 0.0 1029383
19:00−15ese4895100 0.3 1025354
22:00−14ese599597 0.2 1022242
1 march, mon
mon101:00−12ese5109598 0.4 1018320
04:00−8ese5995100 0.9 1014435
07:00−6ese5996100 2.9 1010405
10:00−5e5896100 1.7 1007338
13:00−2ne3498100 3.8 1006173
16:00−1sw1699100 2.3 1005407
19:00−1w2698100 5.0 1005453
22:00−8nne589598 0.9 1007208
2 march, tue
tue201:00−11nne359696 1.0 1010143
04:00−14n239689 0.1 101351
07:00−16n229788 0.3 101523
10:00−17w119786 0.1 101722
13:00−14wsw349391 0.1 1018311
16:00−13sw3492100 0.1 1018387
19:00−14ssw2296100 0.2 101736
22:00−15s129691 0.1 101720
3 march, wed
wed301:00−15s119796 0.2 101620
04:00−16sse1197100 0.3 101520
07:00−15ssw1197100 0.5 101620
10:00−14wsw1195100 0.3 101667
13:00−12wsw2390100 0.5 1017344
16:00−11wsw3490100 0.1 1018519
19:00−13sw3395100 0.1 102070
22:00−17sw349794 0.0 102245
4 march, thu
thu401:00−19ssw469893 0.1 1023101
04:00−20s479847 0.0 1022102
07:00−16sse499371 0.0 1022231
10:00−14sse61092100 0.0 1020330
13:00−11sse61190100 0.0 1019453
16:00−9s61188100 0.0 1017506
19:00−9sse61388100 0.0 1015438
22:00−9sse6138898 0.0 1013347